WGS F6 (USA 244)

Last updated on Thu Oct 30 2025 00:02:49 GMT+0000 (Coordinated Universal Time)

1 39222U 13041A 25302.52261779 .00000000 00000+0 00000+0 0 9996 2 39222 0.0117 238.0940 0000341 350.2461 222.7167 1.00270104 43744
UTC large
Height (km)
Speed (km/s)
/
Latitude / Longitude
Inclination (degrees)
Orbital Period (minutes)
Azimuth
Elevation
Range (km)
Doppler Factor

Next 0 passes for location: London (51.5072 / 0.1276)

Sorry there are no passes over London.